TimePST,TemperatureF,Dew PointF,Humidity,Sea Level PressureIn,VisibilityMPH,Wind Direction,Wind SpeedMPH,Gust SpeedMPH,PrecipitationIn,Events,Conditions,WindDirDegrees,DateUTC
12:00 AM,45.7,45.0,97,29.36,-9999.0,NNW,1.2,-,0.16,,Unknown,330,2014-03-06 08:00:00
1:00 AM,46.4,45.7,97,29.37,-9999.0,SW,1.2,-,0.06,,Unknown,230,2014-03-06 09:00:00
2:00 AM,47.1,46.6,98,29.37,-9999.0,SW,3.5,-,0.06,,Unknown,230,2014-03-06 10:00:00
3:00 AM,46.8,46.0,97,29.37,-9999.0,South,2.3,-,0.01,,Unknown,190,2014-03-06 11:00:00
4:00 AM,47,45,90,29.38,,WSW,2.3,,,,,250,2014-03-06 12:00:00
4:00 AM,46.8,45.0,93,29.38,-9999.0,SW,1.2,-,N/A,,Unknown,230,2014-03-06 12:00:00
5:00 AM,47.8,45.7,92,29.39,-9999.0,SSW,4.6,-,N/A,,Unknown,200,2014-03-06 13:00:00
6:00 AM,47.3,45.9,95,29.41,-9999.0,Calm,Calm,-,0.17,,Unknown,0,2014-03-06 14:00:00
7:00 AM,47.1,46.0,96,29.41,-9999.0,Calm,Calm,-,0.09,,Unknown,0,2014-03-06 15:00:00
8:00 AM,47.1,46.2,97,29.43,-9999.0,Calm,Calm,-,0.07,,Unknown,0,2014-03-06 16:00:00
9:00 AM,47.5,45.9,94,29.44,-9999.0,South,3.5,-,0.06,,Unknown,190,2014-03-06 17:00:00
10:00 AM,48,46,92,29.47,,WSW,1.2,,,,,240,2014-03-06 18:00:00
10:00 AM,48.2,46.4,93,29.47,-9999.0,SW,1.2,-,0.01,,Unknown,230,2014-03-06 18:00:00
11:00 AM,48.9,46.9,93,29.49,-9999.0,South,3.5,-,0.02,,Unknown,170,2014-03-06 19:00:00
12:00 PM,50.5,47.5,89,29.52,-9999.0,SSE,2.3,-,0.01,,Unknown,160,2014-03-06 20:00:00
1:00 PM,51.6,48.6,89,29.55,-9999.0,SSW,3.5,-,0.00,,Unknown,200,2014-03-06 21:00:00
2:00 PM,51.8,43.5,73,29.59,-9999.0,SW,4.6,-,N/A,,Unknown,220,2014-03-06 22:00:00
3:00 PM,52.2,41.7,68,29.63,-9999.0,SW,8.1,-,N/A,,Unknown,220,2014-03-06 23:00:00
4:00 PM,51,41,59,29.68,,SSW,8.1,,,,,210,2014-03-07 00:00:00
4:00 PM,51.3,41.0,68,29.68,-9999.0,SSW,6.9,-,N/A,,Unknown,200,2014-03-07 00:00:00
5:00 PM,51.4,40.8,67,29.73,-9999.0,South,4.6,-,N/A,,Unknown,180,2014-03-07 01:00:00
6:00 PM,49.1,41.7,76,29.77,-9999.0,SSW,5.8,-,N/A,,Unknown,200,2014-03-07 02:00:00
7:00 PM,47.8,41.5,79,29.82,-9999.0,SSE,3.5,-,N/A,,Unknown,160,2014-03-07 03:00:00
8:00 PM,47.1,41.5,81,29.85,-9999.0,SW,1.2,-,N/A,,Unknown,220,2014-03-07 04:00:00
9:00 PM,46.2,41.4,83,29.89,-9999.0,South,2.3,-,N/A,,Unknown,190,2014-03-07 05:00:00
10:00 PM,45,41,81,29.93,,SW,2.3,,,,,220,2014-03-07 06:00:00
10:00 PM,44.8,41.0,87,29.93,-9999.0,SSW,2.3,-,N/A,,Unknown,200,2014-03-07 06:00:00
11:00 PM,45.3,41.0,85,29.95,-9999.0,SSW,3.5,-,N/A,,Unknown,210,2014-03-07 07:00:00